DMSP 5D-2 F13 DEB

Satellite information

Favourite Embed

Satellite Type and Status

DEBRISIN ORBIT

Key statistics

Satellite DMSP 5D-2 F13 DEB at a glance.

Uptime

11063

Days in orbit

Revolutions

≈ 14.3

Per day

Orbit

SSO

Sun Synchronous Orbit

Inclination

98.7

Latest

Satellite identification and parameters

Extended collection of information and parameters for DMSP 5D-2 F13 DEB.

Object identification

Identified? True

Debris? True

Object name: DMSP 5D-2 F13 DEB

International designator: 1995-015FZ

Object number (NORAD): 42259

Object ID (CCSDS): 42259

Country: UNITED STATES OF AMERICA (US)

Current information (Y/N): Y

RCS size: SMALL

Orbital parameters

Period: 100.403 minutes

Inclination: 98.6633 deg

SMA: 7155.799 km

Apoapsis: 783.988 km

Periapsis: 771.339 km

RAAN: 212.2099 deg

Eccentricy: 0.0008838

Argument of periapsis: 220.1931 deg

Mean anomaly: 139.86 deg

Mean motion: 14.34219403 rev/day

Mean motion (dot): 0.00002762 rev/day2

B* drag term: 0.0010004 1/REarth

Two-line elements (TLE)

Creation date: July 2, 2025, 5:47 p.m.

Reference frame: TEME

Reference center: EARTH

Epoch: July 2, 2025, 8:08 a.m. UTC

TLE line 0: 0 DMSP 5D-2 F13 DEB

TLE line 1: 1 42259U 95015FZ 25183.33957369 .00002762 00000-0 10004-2 0 9990

TLE line 2: 2 42259 98.6633 212.2099 0008838 220.1931 139.8600 14.34219403510946

Live tracking on map

Real-time ground track for satellite DMSP 5D-2 F13 DEB.

In-orbit conjunctions

A list of the most updated potential collisions computed for object DMSP 5D-2 F13 DEB.

Target Orbit TCA Probability of collision Miss distance Type
COSMOS 1452 LEO 2025-06-27 06:15:18 0.001620938 234.0 (m) PAYLOAD
COSMOS 968 LEO 2025-04-06 13:17:15 0.000531544 231.0 (m) PAYLOAD
SL-8 R/B LEO 2025-03-01 19:14:24 0.0001280695 130.0 (m) ROCKET BODY
COSMOS 2208 LEO 2024-09-11 04:59:05 0.0002170309 658.0 (m) PAYLOAD

Associated space launch

Military meteorological satellite

DMSP 5D-2 F13 DEB was lifted into orbit during the mission ‘Atlas E | DMSP-5D2 F13’, on board a Atlas E space rocket.

The launch took place on March 24, 1995, 2:05 p.m. from Space Launch Complex 3W.

For more information about the launch, click the button.

Launch to space Atlas E | DMSP-5D2 F13
Atlas E | DMSP-5D2 F13

Agency: N/A

Status: Launch Successful

Launch date: March 24, 1995, 2:05 p.m. UTC

Rocket: Atlas E

Launch pad: Space Launch Complex 3W

Location: Vandenberg SFB, CA, USA

...

Latest news about this satellite

There are no fresh news available about this satellite. Check back as we update our databases every day.


Newsletter sign-up

Weekly statistics, charts and insights to help you stay on top of the space industry.